{"data":{"norad_id":28184,"intl_designator":"2004-007A","name":"ABS-4 (MOBISAT-1)","alt_names":[],"object_type":"PAYLOAD","status":"ACTIVE","operator":null,"country":"ABS","launch_date":"2004-03-13","launch_site_code":"AFETR","launch_vehicle":null,"mission":null,"orbit_class":"UNKNOWN","rcs_meters":10,"size_class":null,"mass_kg":null,"dimensions":null,"purposes":["comms"],"wikipedia_slug":null,"has_3d_model":false,"image_url":null,"decayed_at":null,"tle_current":{"epoch":"2026-09-19T17:16:38.775936Z","epoch_age_seconds":81929,"freshness":"FRESH","line1":"1 28184U 04007A   26262.71989324  .00000035  00000+0  00000+0 0  9991","line2":"2 28184   6.2744  70.8124 0005296 115.6437 132.3989  1.00275822 53289","mean_motion":1.00275822,"eccentricity":0.0005296,"inclination_deg":6.2744,"raan_deg":70.8124,"arg_perigee_deg":115.6437,"mean_anomaly_deg":132.3989,"bstar":0,"rev_number":5328,"period_min":1436.039088266,"perigee_km":35763.133438803,"apogee_km":35807.793124221,"semimajor_km":42163.600281512,"source":"CELESTRAK","updated_at":"2026-09-20T09:00:35.123265Z"}}}